Weather History for Parsons, KS

Change the Weather History Date:

Wednesday, May 1, 2013

  Actual Average Record
Temperature  
Mean Temperature 66 °F -  
Max Temperature 84 °F 71 °F 88 °F (1959)
Min Temperature 48 °F 48 °F 34 °F (1960)
Cooling Degree Days 1    
Growing Degree Days 16 (Base 50)    
Moisture  
Dew Point 55 °F    
Average Humidity 63    
Maximum Humidity 77    
Minimum Humidity 49    
Precipitation  
Precipitation 0.00 in - - ()
Sea Level Pressure  
Sea Level Pressure 29.95 in    
Wind  
Wind Speed 7 mph (ESE)    
Max Wind Speed 18 mph    
Max Gust Speed 26 mph    
Visibility 10 miles    
Events Thunderstorm    
Averages and records for this station are not official NWS values.
T = Trace of Precipitation, MM = Missing Value Source: NWS Daily Summary

Daily Weather History Graph

Daily Weather History Graph

Search for Another Location

Airport:

Trip Planner

Search our weather history database for the weather conditions in past years. The results will help you decide how hot, cold, wet, or windy it might be!

Date:

Astronomy

May. 01, 2013 Rise Set
Actual Time 6:26 AM CDT 8:11 PM CDT
Civil Twilight 5:58 AM CDT 8:40 PM CDT
Nautical Twilight 5:24 AM CDT 9:14 PM CDT
Astronomical Twilight 4:48 AM CDT 9:50 PM CDT
Moon 1:21 AM CDT (5/1) 12:06 PM CDT (5/1)
Length of Visible Light 14h 41m
Length of Day
13h 45m
Waning Gibbous, 59% of the Moon is Illuminated
May 1
Waning Gibbous
May 2
Last Quarter
May 9
New
May 17
First Quarter
May 24
Full

Hourly Weather History & Observations

Time (CDT) Temp. Heat Index Dew Point Humidity Pressure Visibility Wind Dir Wind Speed Gust Speed Precip Events Conditions
12:52 AM 68.0 °F - 48.0 °F 49% 29.82 in 10.0 mi SE 6.9 mph - N/A   Clear
1:52 AM 66.0 °F - 48.9 °F 54% 29.82 in 10.0 mi SSE 6.9 mph - N/A   Clear
2:52 AM 64.9 °F - 48.9 °F 56% 29.82 in 10.0 mi SE 5.8 mph - N/A   Clear
3:52 AM 64.0 °F - 50.0 °F 60% 29.83 in 10.0 mi SSE 6.9 mph - N/A   Clear
4:52 AM 63.0 °F - 51.1 °F 65% 29.83 in 10.0 mi SSE 6.9 mph - N/A   Clear
5:52 AM 62.1 °F - 52.0 °F 70% 29.85 in 10.0 mi SE 5.8 mph - N/A   Clear
6:52 AM 62.1 °F - 52.0 °F 70% 29.87 in 10.0 mi ESE 3.5 mph - N/A   Clear
7:52 AM 64.9 °F - 55.0 °F 70% 29.91 in 10.0 mi ESE 4.6 mph - N/A   Clear
8:52 AM 70.0 °F - 57.0 °F 63% 29.93 in 10.0 mi SE 4.6 mph - N/A   Clear
9:52 AM 73.0 °F - 60.1 °F 64% 29.95 in 10.0 mi SE 5.8 mph - N/A   Clear
10:52 AM 75.0 °F - 61.0 °F 62% 29.95 in 10.0 mi SE 9.2 mph - N/A   Clear
11:52 AM 78.1 °F - 61.0 °F 56% 29.97 in 10.0 mi SSE 5.8 mph - N/A   Clear
12:52 PM 77.0 °F - 61.0 °F 58% 29.96 in 10.0 mi SE 5.8 mph - N/A   Mostly Cloudy
1:52 PM 80.1 °F 81.2 °F 62.1 °F 54% 29.94 in 10.0 mi Variable 3.5 mph - N/A   Mostly Cloudy
2:52 PM 79.0 °F - 61.0 °F 54% 29.94 in 10.0 mi SE 5.8 mph - N/A   Mostly Cloudy
3:52 PM 81.0 °F 81.9 °F 62.1 °F 52% 29.93 in 10.0 mi SE 8.1 mph - N/A   Scattered Clouds
4:52 PM 82.0 °F 83.0 °F 62.1 °F 51% 29.93 in 10.0 mi SSE 6.9 mph - N/A   Scattered Clouds
5:52 PM 81.0 °F 82.2 °F 63.0 °F 54% 29.93 in 10.0 mi Calm Calm - N/A   Mostly Cloudy
6:15 PM 78.8 °F - 62.6 °F 57% 29.95 in 10.0 mi Calm Calm - N/A Thunderstorm Scattered Clouds
6:52 PM 73.9 °F - 63.0 °F 68% 29.95 in 10.0 mi NW 6.9 mph - N/A Thunderstorm Overcast
7:03 PM 73.4 °F - 64.4 °F 73% 29.97 in 10.0 mi NNW 6.9 mph - N/A Thunderstorm Mostly Cloudy
7:25 PM 73.4 °F - 62.6 °F 69% 29.97 in 10.0 mi North 3.5 mph - N/A   Partly Cloudy
7:52 PM 72.0 °F - 64.0 °F 76% 29.96 in 10.0 mi Variable 4.6 mph - N/A   Clear
8:52 PM 63.0 °F - 52.0 °F 67% 30.02 in 10.0 mi North 13.8 mph 21.9 mph N/A   Partly Cloudy
9:52 PM 57.9 °F - 46.0 °F 65% 30.09 in 10.0 mi North 17.3 mph 23.0 mph N/A   Mostly Cloudy
10:52 PM 52.0 °F - 42.1 °F 69% 30.12 in 10.0 mi North 18.4 mph 26.5 mph N/A   Mostly Cloudy
11:10 PM 51.8 °F - 42.8 °F 71% 30.14 in 10.0 mi North 12.7 mph 18.4 mph N/A Thunderstorm Scattered Clouds
11:25 PM 50.0 °F - 42.8 °F 76% 30.13 in 10.0 mi North 18.4 mph 24.2 mph N/A   Clear
11:52 PM 48.9 °F - 42.1 °F 77% 30.12 in 10.0 mi North 15.0 mph 19.6 mph N/A   Clear